Location: Astronomy Club of Akron Observatory
(40.9700°N, 81.5606°W)
Time: 04:05:29
(UTC-04:00)

ISS - Pass Details

Date: 22 July 2018
Orbit: 402 x 408 km, 51.6° (Epoch: 19 July)

Event Time Altitude Azimuth Distance (km) Brightness Sun altitude
Rises 03:54:09 0° 307° (NW) 2,330 0.1 -20.5°
Reaches altitude 10° 03:56:15 10° 309° (NW) 1,468 -1.0 -20.3°
Maximum altitude 03:59:32 76° 34° (NE) 423 -3.7 -19.9°
Drops below altitude 10° 04:02:49 10° 122° (ESE) 1,462 -1.0 -19.6°
Sets 04:04:54 0° 124° (ESE) 2,320 0.1 -19.3°
